CW0146 Weather Reports


Display with metric or nautical units.
time (UTC)temp
F
wind
direction
speed
MPH
gust
MPH
rain 1hr
in
rain 24hr
in
rain mn
in
humidity
%
barometer
mb
20260505061455 71 184 3.0 5.0 0.00 0.00 0.00 87 1009.0
20260505060955 71 183 3.0 8.0 0.00 0.00 0.00 87 1009.0
20260505060454 71 176 5.0 7.0 0.00 0.00 0.00 87 1009.0
20260505055954 71 181 4.0 8.0 0.00 0.00 0.00 87 1009.0
20260505055454 71 178 5.0 11.0 0.00 0.00 0.00 87 1009.0
20260505054954 71 190 4.0 8.0 0.00 0.00 0.00 87 1009.0
20260505054455 71 176 4.0 8.0 0.00 0.00 0.00 87 1009.0
20260505053954 71 175 3.0 6.0 0.00 0.00 0.00 87 1009.0
20260505053454 71 181 4.0 7.0 0.00 0.00 0.00 87 1009.0
20260505052954 71 190 4.0 7.0 0.00 0.00 0.00 87 1009.0
20260505052454 71 181 5.0 11.0 0.00 0.00 0.00 86 1009.0
20260505051955 71 195 3.0 6.0 0.00 0.00 0.00 87 1009.0
20260505051454 71 186 5.0 7.0 0.00 0.00 0.00 87 1009.0
20260505050954 71 179 4.0 7.0 0.00 0.00 0.00 87 1009.0
20260505050454 71 171 2.0 6.0 0.00 0.00 0.00 87 1009.0
20260505041454 72 66 2.0 3.0 0.00 0.00 0.00 85 1009.0
20260505040954 72 172 3.0 6.0 0.00 0.00 0.00 84 1009.0
20260505040455 73 135 1.0 4.0 0.00 0.00 0.00 84 1010.0
20260505035954 73 102 1.0 2.0 0.00 0.00 0.00 83 1010.0
20260505035458 73 120 1.0 2.0 0.00 0.00 0.00 82 1010.0
20260505034954 74 195 2.0 4.0 0.00 0.00 0.00 81 1010.0
20260505034454 74 186 3.0 4.0 0.00 0.00 0.00 81 1009.0
20260505033954 74 188 4.0 11.0 0.00 0.00 0.00 81 1009.0
20260505033454 74 174 2.0 6.0 0.00 0.00 0.00 81 1009.0
20260505032954 74 169 2.0 6.0 0.00 0.00 0.00 81 1009.0
20260505032454 74 206 1.0 4.0 0.00 0.00 0.00 80 1009.0
20260505031954 74 153 2.0 4.0 0.00 0.00 0.00 80 1009.0
20260505031454 74 189 3.0 7.0 0.00 0.00 0.00 80 1009.0
20260505030954 74 154 2.0 4.0 0.00 0.00 0.00 79 1009.0
20260505030454 74 190 3.0 9.0 0.00 0.00 0.00 79 1009.0
20260505025954 75 187 1.0 2.0 0.00 0.00 0.00 79 1009.0
20260505025454 75 184 2.0 4.0 0.00 0.00 0.00 78 1009.0
20260505024954 75 173 2.0 5.0 0.00 0.00 0.00 78 1009.0
20260505024454 75 161 2.0 5.0 0.00 0.00 0.00 77 1009.0
20260505023954 75 128 2.0 7.0 0.00 0.00 0.00 77 1009.0
20260505023454 75 141 1.0 2.0 0.00 0.00 0.00 76 1009.0
20260505022954 75 201 2.0 5.0 0.00 0.00 0.00 76 1009.0
20260505022454 76 179 2.0 4.0 0.00 0.00 0.00 76 1009.0
20260505021954 76 188 3.0 6.0 0.00 0.00 0.00 75 1009.0
20260505021454 76 185 3.0 5.0 0.00 0.00 0.00 75 1009.0
20260505020954 76 165 4.0 7.0 0.00 0.00 0.00 74 1009.0
20260505020454 76 189 3.0 5.0 0.00 0.00 0.00 74 1009.0
20260505015511 76 190 3.0 5.0 0.00 0.00 0.00 73 1009.0
20260505014454 76 187 2.0 4.0 0.00 0.00 0.00 72 1009.0
20260505013954 77 198 2.0 4.0 0.00 0.00 0.00 71 1009.0
20260505013454 77 204 2.0 3.0 0.00 0.00 0.00 71 1009.0
20260505012954 77 179 2.0 3.0 0.00 0.00 0.00 70 1009.0
20260505012454 77 193 2.0 4.0 0.00 0.00 0.00 69 1009.0
20260505011954 77 186 2.0 5.0 0.00 0.00 0.00 69 1009.0
20260505011454 77 172 2.0 5.0 0.00 0.00 0.00 69 1009.0
20260505010954 78 190 2.0 5.0 0.00 0.00 0.00 68 1009.0
20260505010458 78 176 2.0 4.0 0.00 0.00 0.00 68 1009.0
20260505005954 78 180 3.0 5.0 0.00 0.00 0.00 68 1009.0
20260505005454 78 200 2.0 4.0 0.00 0.00 0.00 67 1009.0
20260505004954 78 190 4.0 7.0 0.00 0.00 0.00 66 1009.0
20260505004454 79 157 2.0 8.0 0.00 0.00 0.00 66 1009.0
20260505003954 79 151 2.0 3.0 0.00 0.00 0.00 65 1009.0
20260505003454 79 181 3.0 7.0 0.00 0.00 0.00 65 1009.0
20260505002954 80 187 3.0 5.0 0.00 0.00 0.00 64 1009.0
20260505002454 80 174 4.0 10.0 0.00 0.00 0.00 64 1009.0
20260505001954 80 183 3.0 6.0 0.00 0.00 0.00 63 1009.0
20260505001454 80 167 3.0 5.0 0.00 0.00 0.00 63 1009.0
20260505000955 80 152 3.0 6.0 0.00 0.00 0.00 62 1009.0
20260505000454 81 187 4.0 8.0 0.00 0.00 0.00 62 1009.0
20260504235954 81 219 2.0 4.0 0.00 0.00 0.00 61 1009.0
20260504235454 81 194 2.0 6.0 0.00 0.00 0.00 62 1009.0
20260504234954 81 172 4.0 8.0 0.00 0.00 0.00 62 1009.0
20260504234454 81 196 3.0 5.0 0.00 0.00 0.00 61 1009.0
20260504233954 81 199 4.0 9.0 0.00 0.00 0.00 61 1009.0
20260504233454 81 191 2.0 3.0 0.00 0.00 0.00 61 1009.0
20260504232957 81 194 3.0 7.0 0.00 0.00 0.00 61 1009.0
20260504232454 81 99 2.0 5.0 0.00 0.00 0.00 61 1009.0
20260504231954 81 191 5.0 8.0 0.00 0.00 0.00 61 1009.0
20260504231454 81 185 6.0 12.0 0.00 0.00 0.00 61 1009.0
20260504230954 82 195 2.0 5.0 0.00 0.00 0.00 61 1009.0
20260504230454 82 184 4.0 7.0 0.00 0.00 0.00 60 1009.0
20260504225954 82 184 4.0 9.0 0.00 0.00 0.00 60 1009.0
20260504225454 83 189 3.0 6.0 0.00 0.00 0.00 60 1009.0
20260504224954 82 184 3.0 7.0 0.00 0.00 0.00 60 1009.0
20260504224454 82 190 5.0 12.0 0.00 0.00 0.00 60 1009.0
20260504223955 82 184 4.0 8.0 0.00 0.00 0.00 60 1009.0
20260504223454 82 198 2.0 5.0 0.00 0.00 0.00 61 1009.0
20260504222954 83 136 3.0 6.0 0.00 0.00 0.00 59 1009.0
20260504222454 82 153 2.0 5.0 0.00 0.00 0.00 60 1009.0
20260504221953 83 189 4.0 8.0 0.00 0.00 0.00 60 1010.0
20260504221455 83 183 6.0 11.0 0.00 0.00 0.00 58 1010.0
20260504220954 83 217 2.0 8.0 0.00 0.00 0.00 58 1009.0
20260504220456 83 177 3.0 8.0 0.00 0.00 0.00 59 1009.0
20260504215954 83 183 5.0 7.0 0.00 0.00 0.00 58 1010.0
20260504215454 83 175 5.0 9.0 0.00 0.00 0.00 59 1010.0
20260504214954 83 142 3.0 7.0 0.00 0.00 0.00 59 1009.0
20260504214454 83 158 2.0 5.0 0.00 0.00 0.00 60 1009.0
20260504213954 83 113 4.0 10.0 0.00 0.00 0.00 59 1009.0
20260504213454 82 170 5.0 12.0 0.00 0.00 0.00 58 1010.0
20260504212506 82 193 4.0 8.0 0.00 0.00 0.00 60 1010.0
20260504211954 82 95 3.0 8.0 0.00 0.00 0.00 60 1010.0
20260504211454 83 193 4.0 8.0 0.00 0.00 0.00 59 1010.0
20260504210954 83 182 3.0 6.0 0.00 0.00 0.00 59 1010.0
20260504210454 82 185 6.0 10.0 0.00 0.00 0.00 59 1010.0
20260504205954 82 199 6.0 9.0 0.00 0.00 0.00 58 1010.0
20260504205454 81 185 4.0 5.0 0.00 0.00 0.00 60 1010.0
20260504204955 82 169 4.0 8.0 0.00 0.00 0.00 60 1011.0
20260504204454 82 186 4.0 6.0 0.00 0.00 0.00 59 1011.0
20260504203955 82 187 2.0 5.0 0.00 0.00 0.00 60 1011.0
20260504203454 81 179 3.0 6.0 0.00 0.00 0.00 59 1011.0
20260504202955 81 117 1.0 3.0 0.00 0.00 0.00 60 1011.0
20260504202455 82 141 3.0 7.0 0.00 0.00 0.00 59 1011.0
20260504201954 82 154 3.0 5.0 0.00 0.00 0.00 58 1011.0
20260504201454 82 187 6.0 11.0 0.00 0.00 0.00 60 1011.0
20260504200954 81 207 3.0 6.0 0.00 0.00 0.00 60 1011.0
20260504200454 82 177 5.0 8.0 0.00 0.00 0.00 59 1012.0
20260504195954 82 179 5.0 10.0 0.00 0.00 0.00 59 1012.0
20260504195454 82 184 4.0 6.0 0.00 0.00 0.00 58 1012.0
20260504194954 82 167 4.0 5.0 0.00 0.00 0.00 59 1012.0
20260504194454 81 178 4.0 7.0 0.00 0.00 0.00 60 1012.0
20260504193954 81 181 6.0 11.0 0.00 0.00 0.00 58 1012.0
20260504193454 81 150 4.0 8.0 0.00 0.00 0.00 59 1012.0
20260504192954 80 180 3.0 7.0 0.00 0.00 0.00 61 1012.0
20260504192454 80 148 2.0 5.0 0.00 0.00 0.00 60 1012.0
20260504191955 80 196 4.0 9.0 0.00 0.00 0.00 60 1012.0
20260504191455 80 196 4.0 8.0 0.00 0.00 0.00 61 1012.0
20260504190957 80 201 4.0 8.0 0.00 0.00 0.00 61 1012.0
20260504190454 80 180 4.0 8.0 0.00 0.00 0.00 61 1012.0
20260504185954 79 180 4.0 7.0 0.00 0.00 0.00 61 1012.0
20260504185454 79 170 2.0 6.0 0.00 0.00 0.00 63 1012.0
20260504184955 79 189 5.0 9.0 0.00 0.00 0.00 61 1012.0
20260504184454 78 190 4.0 8.0 0.00 0.00 0.00 62 1012.0
20260504183956 78 186 7.0 12.0 0.00 0.00 0.00 63 1012.0
20260504183454 78 186 4.0 8.0 0.00 0.00 0.00 63 1013.0
20260504182959 78 185 6.0 12.0 0.00 0.00 0.00 62 1013.0
20260504182454 78 200 6.0 11.0 0.00 0.00 0.00 63 1013.0
20260504181954 78 189 6.0 8.0 0.00 0.00 0.00 63 1013.0
20260504181455 77 175 3.0 5.0 0.00 0.00 0.00 65 1013.0
20260504180954 77 173 4.0 8.0 0.00 0.00 0.00 66 1013.0
20260504180454 77 188 4.0 9.0 0.00 0.00 0.00 64 1013.0
20260504175954 76 194 3.0 7.0 0.00 0.00 0.00 66 1013.0
20260504175454 76 185 3.0 4.0 0.00 0.00 0.00 68 1013.0
20260504174954 76 187 7.0 11.0 0.00 0.00 0.00 65 1013.0
20260504174455 76 201 4.0 8.0 0.00 0.00 0.00 66 1013.0
20260504173954 76 182 6.0 11.0 0.00 0.00 0.00 67 1014.0
20260504173454 76 159 3.0 5.0 0.00 0.00 0.00 67 1014.0
20260504172954 76 187 5.0 7.0 0.00 0.00 0.00 66 1014.0
20260504172454 76 211 4.0 8.0 0.00 0.00 0.00 66 1014.0
20260504171959 76 185 4.0 8.0 0.00 0.00 0.00 67 1014.0
20260504171454 76 176 5.0 11.0 0.00 0.00 0.00 65 1014.0
20260504170954 76 143 3.0 5.0 0.00 0.00 0.00 67 1014.0
20260504170454 76 162 6.0 10.0 0.00 0.00 0.00 66 1014.0
20260504150955 70 185 6.0 10.0 0.00 0.00 0.00 73 1014.0
20260504150454 70 181 5.0 8.0 0.00 0.00 0.00 74 1015.0
20260504140954 66 178 4.0 7.0 0.00 0.00 0.00 77 1015.0
20260504140454 66 170 3.0 6.0 0.00 0.00 0.00 78 1015.0
20260504130454 62 186 2.0 4.0 0.00 0.00 0.00 83 1015.0
20260504110454 60 148 1.0 2.0 0.00 0.00 0.00 84 1015.0
20260504100454 61 121 1.0 2.0 0.00 0.00 0.00 83 1015.0
20260504081954 63 182 2.0 3.0 0.00 0.00 0.00 79 1015.0
20260504081455 63 114 0.0 2.0 0.00 0.00 0.00 78 1016.0
20260504080954 63 174 2.0 7.0 0.00 0.00 0.00 78 1016.0
20260504080454 63 183 1.0 4.0 0.00 0.00 0.00 78 1016.0